www.pogodaiklimat.ru
Время
(UTC), дата
04 22.10
05 22.10
06 22.10
07 22.10
08 22.10
09 22.10
10 22.10
11 22.10
12 22.10
13 22.10
14 22.10
15 22.10
16 22.10
17 22.10
18 22.10
19 22.10
20 22.10
21 22.10
22 22.10
23 22.10
00 23.10
01 23.10
02 23.10
03 23.10
04 23.10
05 23.10
06 23.10
07 23.10
08 23.10
09 23.10
10 23.10
11 23.10
12 23.10
13 23.10
14 23.10
15 23.10
16 23.10
17 23.10
18 23.10
19 23.10
20 23.10
21 23.10
22 23.10
23 23.10
00 24.10
01 24.10
02 24.10
03 24.10
04 24.10
05 24.10
06 24.10
07 24.10
08 24.10
09 24.10
10 24.10
11 24.10
12 24.10
13 24.10
14 24.10
15 24.10
16 24.10
17 24.10
18 24.10
19 24.10
20 24.10
21 24.10
22 24.10
23 24.10
00 25.10
01 25.10
02 25.10
03 25.10
04 25.10
05 25.10
06 25.10
07 25.10
08 25.10
09 25.10
10 25.10
11 25.10
12 25.10
13 25.10
14 25.10
15 25.10
16 25.10
17 25.10
18 25.10
19 25.10
20 25.10
21 25.10
22 25.10
23 25.10
00 26.10
01 26.10
02 26.10
03 26.10
04 26.10
05 26.10
06 26.10
07 26.10
08 26.10
09 26.10
10 26.10
11 26.10
12 26.10
13 26.10
14 26.10
15 26.10
16 26.10
17 26.10
18 26.10
19 26.10
20 26.10
21 26.10
22 26.10
23 26.10
00 27.10
01 27.10
02 27.10
03 27.10
04 27.10
05 27.10
06 27.10
07 27.10
08 27.10
09 27.10
10 27.10
11 27.10
12 27.10
13 27.10
14 27.10
15 27.10
16 27.10
17 27.10
18 27.10
19 27.10
20 27.10
21 27.10
22 27.10
23 27.10
00 28.10
01 28.10
02 28.10
03 28.10
04 28.10
05 28.10
06 28.10
07 28.10
08 28.10
09 28.10
10 28.10
11 28.10
12 28.10
13 28.10
14 28.10
15 28.10
16 28.10
17 28.10
18 28.10
19 28.10
20 28.10
21 28.10
22 28.10
23 28.10
00 29.10
01 29.10
02 29.10
03 29.10
Ветер
(напр.,м/с)
Видим. Явления Облачность Т
(С)
Тd
(С)
f
(%)
Тe
(С)
Тes
(С)
Комфортность P
(гПа)
Po
(гПа)
Тmin
(С)
Tmax
(С)
R
(мм)
R24
(мм)
S
(см)
ЮЗ 4
{8}
35 км 6/0
[Ac As Ci fib]
+14.2 +11.2 82 +13 +13 тепло 1010.0 1003.5
ЮЗ 3
{7}
35 км 4/0
[Ac trans Ci fib]
+13.6 +11.0 84 +12 +12 тепло 1010.3 1003.7
ЮЗ 4
{8}
30 км 6/0
[Ac trans Ci fib]
+13.7 +10.9 83 +12 +12 тепло 1010.3 1003.7 +13.2 0.0
ЮЗ 4
{7}
30 км 5/3 2000 м
[Sc Ac trans Ci fib]
+13.6 +11.4 87 +12 +12 тепло 1011.0 1004.4
ЮЗ 4
{6}
30 км 8/4 480 м
[Cu Sc Ac trans Ci fib]
+14.9 +12.2 84 +14 +14 тепло 1011.9 1005.3
ЮЗ 4
{8}
30 км 9/6 480 м
[Cu Sc Ac trans Ci fib]
+15.6 +12.6 82 +15 +15 тепло 1012.2 1005.6
ЮЗ 5
{8}
9000 м слаб. дождь 10/9 300 м
[Sc]
+15.2 +12.8 86 +14 +14 тепло 1012.3 1005.8
ЮЗ 3
{7}
6000 м дождь 10/9 240 м
[Sc]
+14.6 +13.4 93 +14 +14 тепло 1012.2 1005.7
З 3
{8}
10 км в посл. час дождь {морось} 9/9 300 м
[Sc]
+15.8 +13.8 88 +15 +16 тепло 1011.9 1005.3 0.1
ЮЗ 3
{5}
12 км слаб. дождь 9/9 400 м
[Sc]
+16.4 +14.1 86 +16 +16 тепло 1011.5 1005.0
З 3
{7}
8000 м слаб. ливневой дождь 9/8 240 м
[Cu Sc]
+14.8 +13.5 92 +14 +14 тепло 1011.3 1004.7
З 4
{7}
18 км в посл. час ливневой дождь 8/5 600 м
[Cu Sc Ac cuf Ci ing]
+15.8 +13.7 87 +15 +15 тепло 1011.5 1005.0
Ю 2
{5}
18 км 3/3 720 м
[Cu Sc Ac trans]
+15.8 +13.9 88 +16 +16 тепло 1011.2 1004.7
ЮЗ 2
{3}
20 км 3/3 600 м
[Cu Sc Ac trans Ci fib]
+14.5 +13.1 91 +14 +14 тепло 1011.9 1005.3
ЮЗ 2
{7}
20 км 1/1 600 м
[Cu hum Ci fib]
+13.9 +12.5 91 +13 +13 тепло 1012.2 1005.6 +17.1 6
ЮЗ 2
{3}
20 км 1/1 600 м
[Cu hum Ci fib]
+12.5 +11.3 92 +12 +12 тепло 1012.3 1005.7
ЮЗ 2
{3}
20 км 1/0
[Ci fib]
+12.6 +11.5 93 +12 +12 тепло 1012.4 1005.8
Ю 2
{3}
20 км 3/0
[Ci fib]
+11.3 +10.4 94 +10 +10 по сезону 1012.8 1006.2
Ю 2
{3}
10 км 1/0
[Ci fib]
+11.4 +10.6 95 +10 +10 тепло 1013.0 1006.3
Ю 3
{3}
10 км 6/5 750 м
[Sc Ci fib]
+11.9 -16.7 12 +11 +11 тепло 1012.9 1006.2
Ю 2
{3}
15 км 8/8 750 м
[Sc Ci fib]
+12.5 +11.5 94 +11 +11 тепло 1012.8 1006.2
Ю 2
{3}
6000 м 8/8 750 м
[Sc Ci fib]
+12.3 +11.3 94 +11 +11 тепло 1012.7 1006.1
ЮЗ 1
{3}
6000 м 9/6 1020 м
[Sc Ci fib]
+11.6 +10.9 95 +11 +11 тепло 1012.0 1005.4
Ю 2
{3}
10 км 8/1 1050 м
[Sc Ac und Ci fib]
+11.4 +10.5 94 +10 +10 тепло 1011.9 1005.2
Ю 2
{3}
10 км 6/0 2000 м
[Ac trans Ci fib]
+11.4 +10.6 95 +10 +10 тепло 1011.0 1004.4
Ю 2
{3}
8000 м 6/1 840 м
[Sc Ac trans Ci fib]
+11.5 +10.7 95 +10 +10 тепло 1010.9 1004.3
Ю 1
{3}
6000 м 8/5 840 м
[Sc Ac trans Ci fib]
+11.9 +11.0 94 +12 +12 тепло 1010.8 1004.2 +10.5
Ю 3
{3}
9000 м 9/4 540 м
[Sc Ac trans]
+12.8 +11.8 94 +11 +11 тепло 1010.9 1004.3
Ю 2
{4}
10 км 9/6 240 м
[St Ac trans]
+13.5 +12.3 92 +13 +13 тепло 1011.0 1004.4
ЮЗ 3
{4}
8000 м в посл. час ливневой дождь 9/9 210 м
[Frnb]
+14.3 +13.0 92 +13 +13 тепло 1010.9 1004.3
ЮЗ 3
{5}
8000 м 9/9 240 м
[St]
+14.7 +13.2 91 +14 +14 тепло 1011.0 1004.5
ЮЗ 3
{6}
12 км 8/6 400 м
[Sc Ac trans Ci fib]
+15.4 +13.6 89 +15 +16 тепло 1010.9 1004.4
ЮЗ 4
{7}
12 км {ливн. дождь} 5/5 420 м
[Cu med, cong]
+16.0 +13.5 85 +15 +17 тепло 1010.6 1004.0 0.0
ЮЗ 5
{7}
20 км 5/4 480 м
[Cu med, cong Ci fib]
+16.7 +12.8 78 +16 +17 тепло 1010.5 1004.0
ЮЗ 4
{7}
20 км 4/4 600 м
[Cu med, cong Ci fib]
+17.4 +12.3 72 +17 +18 тепло 1010.2 1003.8
ЮЗ 4
{7}
20 км 3/3 720 м
[Cu med, cong Ci fib]
+16.6 +11.1 70 +16 +17 тепло 1010.4 1003.9
ЮЗ 4
{8}
40 км 3/3 750 м
[Cu med, cong Ci fib]
+15.7 +10.8 73 +15 +15 тепло 1010.8 1004.3
ЮЗ 3
{7}
40 км 3/3 800 м
[Cu med, cong Ci fib]
+14.1 +11.2 83 +13 +13 тепло 1011.0 1004.4
Ю 3
{8}
40 км {ливн. дождь} 6/4 800 м
[Cu Sc Ci fib]
+13.9 +11.0 83 +13 +13 тепло 1011.0 1004.4 +17.4 0.0
ЮЗ 3
{5}
40 км 5/4 1500 м
[Sc Ac trans Ci fib]
+12.8 +10.2 84 +11 +11 тепло 1011.5 1004.9
ЮЗ 3
{6}
40 км 6/6 870 м
[Sc Ac trans Ci fib]
+13.7 +10.4 80 +13 +13 тепло 1011.7 1005.1
ЮЗ 4
{7}
40 км 10/9 660 м
[Sc]
+13.7 +10.7 82 +12 +12 тепло 1012.6 1006.0
ЮЗ 4
{9}
40 км 4/4 540 м
[Sc Ci fib]
+12.7 +10.3 85 +11 +11 тепло 1013.1 1006.5
Ю 3
{6}
40 км 8/8 1500 м
[Sc]
+12.2 +10.3 88 +11 +11 тепло 1012.9 1006.3
ЮЗ 4
{9}
40 км 6/6 1500 м
[Sc Ci fib]
+12.4 +10.1 86 +10 +10 тепло 1013.0 1006.4
ЮЗ 5
{7}
40 км 8/8 750 м
[Sc]
+12.7 +10.1 84 +10 +10 тепло 1013.0 1006.4
ЮЗ 4
{8}
40 км 9/9 900 м
[Sc]
+12.6 +10.0 84 +11 +11 тепло 1013.0 1006.4
ЮЗ 4
{9}
40 км 9/9 1050 м
[Sc]
+12.4 +9.6 83 +10 +10 тепло 1012.5 1005.9
ЮЗ 5
{8}
40 км 10/9 1260 м
[Sc]
+12.4 +9.7 84 +10 +10 тепло 1012.6 1006.0
ЮЗ 6
{9}
40 км 10/9 480 м
[Sc]
+12.3 +9.9 85 +10 +10 тепло 1012.4 1005.8
Ю 5
{9}
5000 м слаб. морось 9/9 270 м
[Frnb]
+11.7 +10.2 91 +9 +9 тепло 1012.0 1005.4 +11.7 0.2
ЮЗ 6
{10}
4000 м слаб. морось 10/10 210 м
[Frnb]
+11.8 +10.3 91 +9 +9 тепло 1012.0 1005.3
ЮЗ 7
{11}
7000 м слаб. морось 10/10 210 м
[Frnb]
+12.1 +10.6 91 +9 +9 тепло 1012.2 1005.5
ЮЗ 7
{11}
15 км в посл. час морось 10/10 240 м
[Frnb]
+12.5 +10.6 88 +10 +10 по сезону 1012.1 1005.5
ЮЗ 6
{11}
35 км в посл. час морось 9/6 600 м
[Sc Ac trans Ci]
+13.7 +10.5 81 +12 +12 тепло 1012.0 1005.5
Ю 7
{12}
35 км 9/8 630 м
[Sc Ac trans Ci]
+14.6 +10.5 76 +13 +13 тепло 1011.9 1005.4
Ю 7
{12}
8000 м слаб. морось 10/10 360 м
[Frnb]
+13.8 +11.6 87 +11 +11 по сезону 1011.5 1005.0 0.0
Ю 7
{10}
20 км в посл. час морось 10/10 360 м
[Frnb]
+13.5 +12.0 91 +11 +11 по сезону 1010.7 1004.1
Ю 6
{10}
30 км 9/4 600 м
[Cu Sc Ac As]
+14.5 +12.2 86 +13 +13 тепло 1010.1 1003.6
Ю 6
{10}
30 км {морось} 9/9 540 м
[Cu Sc]
+14.9 +12.2 84 +13 +13 тепло 1009.4 1002.9
Ю 7
{14}
30 км в посл. час морось 9/6 600 м
[Sc Ac As]
+14.8 +11.8 82 +13 +13 тепло 1008.8 1002.3
Ю 6
{13}
30 км 9/3 750 м
[Sc Ac As]
+14.5 +11.6 83 +13 +13 тепло 1008.2 1001.7
Ю 9
{14}
30 км {дождь} 9/9 360 м
[Sc]
+14.6 +12.1 85 +12 +12 тепло 1007.8 1001.2 +15.1 0.2
Ю 9
{13}
50 км 9/9 540 м
[Sc]
+14.8 +11.9 83 +12 +12 тепло 1006.9 1000.4
Ю 9
{15}
50 км 9/9 570 м
[Sc]
+15.1 +11.8 81 +13 +13 тепло 1006.3 999.8
Ю 9
{15}
50 км 9/9 700 м
[Sc]
+15.2 +11.6 79 +13 +13 тепло 1005.7 999.2
Ю 9
{15}
50 км 9/9 720 м
[Sc]
+15.2 +11.3 78 +13 +13 тепло 1005.2 998.7
Ю 9
{18}
40 км 9/9 540 м
[Sc]
+14.5 +11.7 83 +12 +12 тепло 1005.2 998.6
Ю 9
{18}
40 км 9/9 870 м
[Sc Ac trans]
+14.9 +10.8 76 +13 +13 тепло 1004.0 997.5
Ю 9
{14}
50 км 9/9 750 м
[Sc]
+14.7 +10.2 74 +12 +12 тепло 1003.5 997.0
Ю 8
{14}
50 км 9/8 1500 м
[Sc Ac trans Ci sp]
+14.4 +10.1 75 +12 +12 тепло 1003.0 996.5
Ю 8
{14}
50 км слаб. дождь 10/9 1080 м
[Sc]
+14.5 +10.1 75 +12 +12 тепло 1002.0 995.5
Ю 10
{16}
15 км слаб. дождь 10/9 960 м
[Sc]
+13.9 +10.1 78 +11 +11 тепло 1001.5 995.0
З 8
{16}
9000 м слаб. дождь 10/9 400 м
[Sc]
+11.5 +9.0 85 +8 +8 тепло 1003.0 996.4
ЮЗ 6
{16}
10 км слаб. дождь 10/9 300 м
[Sc]
+10.6 +9.2 91 +7 +7 по сезону 1002.6 996.0 +10.4 5
ЮЗ 5
{10}
10 км дождь 10/4 1350 м
[Sc As op]
+11.6 +9.9 89 +9 +9 тепло 1002.7 996.2
Ю 5
{10}
25 км в посл. час дождь 9/5 400 м
[Sc Ac As]
+11.9 +10.3 90 +9 +9 тепло 1002.3 995.7
Ю 5
{10}
30 км {дождь} 9/8 400 м
[Sc Ac As]
+12.3 +10.5 89 +10 +10 по сезону 1002.3 995.8
ЮЗ 4
{8}
30 км 9/5 400 м
[Sc Ac As]
+12.0 +9.5 85 +10 +10 тепло 1002.7 996.1
Ю 5
{9}
20 км дождь 9/4 400 м
[Sc Ac As]
+11.4 +9.6 89 +9 +9 тепло 1002.6 996.0
ЮЗ 4
{10}
30 км слаб. дождь 9/4 750 м
[Sc Ac As]
+12.0 +10.1 88 +10 +10 по сезону 1002.5 996.0 3
Ю 4
{7}
30 км 9/4 500 м
[Sc Ac As]
+11.9 +9.5 85 +10 +10 по сезону 1001.9 995.4
Ю 4
{8}
30 км 9/3 1200 м
[Sc Ac As]
+11.7 +9.1 84 +10 +10 тепло 1001.6 995.1
Ю 5
{8}
30 км 9/3 1200 м
[Sc Ac As]
+11.4 +9.0 85 +9 +9 по сезону 1001.3 994.8
Ю 4
{7}
30 км 9/4 750 м
[Sc Ac As]
+11.5 +9.1 85 +9 +9 по сезону 1001.9 995.4
Ю 5
{8}
30 км 6/3 900 м
[Sc Ac As Ci ing]
+11.2 +8.6 84 +8 +8 по сезону 1001.9 995.4
Ю 4
{9}
30 км 5/4 900 м
[Sc Ac As Ci ing]
+10.8 +8.5 86 +8 +8 по сезону 1001.7 995.1 +12.4 3
Ю 4
{7}
30 км 6/0
[Ac trans Ci fib]
+10.4 +8.3 87 +8 +8 по сезону 1001.5 994.9
Ю 5
{8}
30 км 9/0
[Ac As Ci fib]
+10.8 +8.6 86 +8 +8 тепло 1001.4 994.8
Ю 3
{8}
30 км слаб. ливневой дождь 9/9 660 м
[Cu Sc]
+10.6 +8.6 87 +9 +9 по сезону 1001.4 994.8
Ю 3
{7}
10 км слаб. ливневой дождь 9/9 400 м
[Cu Sc]
+9.9 +7.9 87 +8 +8 по сезону 1001.1 994.5
Ю 4
{5}
10 км в посл. час ливневой дождь 6/0
[Ac trans Ci fib]
+9.8 +8.2 90 +7 +7 тепло 1001.2 994.6
ЮЗ 4
{8}
10 км 6/6 750 м
[Sc Ci fib]
+9.7 +7.9 89 +7 +7 по сезону 1001.1 994.5 0.9
ЮЗ 4
{6}
10 км {ливн. дождь} 5/5 400 м
[Sc Ci fib]
+9.4 +7.7 89 +6 +6 по сезону 1000.6 994.0
ЮЗ 4
{7}
10 км 9/9 400 м
[Sc]
+9.2 +7.5 89 +6 +6 тепло 1000.6 994.0
Ю 4
{7}
27 км 9/9 660 м
[Sc]
+9.4 +7.4 87 +6 +6 по сезону 1000.8 994.2
ЮЗ 4
{6}
27 км 9/9 540 м
[Sc]
+9.3 +7.1 86 +6 +6 тепло 1000.7 994.1
ЮЗ 4
{7}
30 км 6/6 480 м
[Sc Ci fib]
+8.8 +6.7 87 +6 +6 тепло 1000.7 994.0
ЮЗ 5
{10}
30 км {ливн. дождь} 6/5 600 м
[Cu Sc Ac trans Ci fib]
+8.7 +6.0 83 +5 +5 по сезону 1001.1 994.5 +8.6 0.9
ЮЗ 3
{10}
20 км 8/8 800 м
[Sc Ci fib]
+8.6 +6.1 84 +6 +6 тепло 1001.8 995.2
ЮЗ 5
{9}
25 км в посл. час ливневой дождь 8/8 540 м
[Cu Sc Ci fib]
+9.1 +5.9 80 +6 +6 тепло 1001.8 995.2
ЮЗ 6
{10}
30 км 9/9 660 м
[Sc]
+9.5 +6.1 79 +6 +6 по сезону 1001.9 995.3
ЮЗ 6
{11}
30 км 5/5 570 м
[Cu Sc Ci fib]
+10.2 +6.4 77 +7 +7 по сезону 1001.6 995.0
ЮЗ 7
{11}
30 км 5/5 630 м
[Cu Sc]
+11.1 +6.0 71 +8 +8 тепло 1001.6 995.0
ЮЗ 9
{13}
30 км {ливн. дождь} 5/5 660 м
[Cu Sc]
+12.0 +5.8 66 +9 +9 по сезону 1001.2 994.7
ЮЗ 6
{13}
30 км 6/6 900 м
[Cu Sc]
+11.9 +6.4 69 +9 +10 по сезону 1001.1 994.5
ЮЗ 8
{15}
30 км 6/6 900 м
[Cu Sc]
+12.0 +5.8 66 +9 +9 тепло 1001.1 994.6
ЮЗ 7
{15}
30 км 8/8 900 м
[Sc diur, vesp Ci fib]
+11.7 +6.1 68 +9 +9 по сезону 1001.6 995.0
ЮЗ 6
{11}
30 км 6/6 840 м
[Sc diur, vesp Ci fib]
+11.5 +6.5 71 +9 +9 тепло 1001.8 995.3
ЮЗ 5
{9}
30 км 6/6 1140 м
[Sc diur, vesp Ci fib]
+10.6 +6.4 75 +8 +8 тепло 1001.9 995.3
Ю 4
{15}
30 км слаб. ливневой дождь 9/9 900 м
[Cu Sc]
+10.6 +6.8 77 +8 +8 по сезону 1002.2 995.7 +12.8
ЮЗ 5
{8}
30 км в посл. час ливневой дождь 6/6 900 м
[Cu Sc]
+10.6 +6.5 76 +8 +8 тепло 1002.2 995.6
ЮЗ 6
{9}
30 км 8/8 900 м
[Sc]
+10.4 +6.6 77 +7 +7 тепло 1002.6 996.0
ЮЗ 6
{9}
30 км {ливн. дождь} 6/6 900 м
[Sc diur, vesp Ac trans]
+10.1 +6.6 79 +7 +7 по сезону 1003.3 996.7
ЮЗ 6
{10}
30 км 5/5 960 м
[Sc diur, vesp Ac trans]
+9.8 +6.4 79 +6 +6 по сезону 1003.4 996.8
ЮЗ 6
{9}
30 км 8/8 700 м
[Sc diur, vesp Ac trans]
+9.9 +6.9 82 +6 +6 тепло 1003.7 997.0
ЮЗ 6
{10}
30 км {ливн. дождь} 4/4 500 м
[Sc diur, vesp Ac trans]
+9.3 +6.9 85 +6 +6 по сезону 1003.8 997.2
ЮЗ 5
{9}
30 км в посл. час ливневой дождь 3/3 540 м
[Sc diur, vesp Ac trans]
+8.8 +6.8 87 +5 +5 по сезону 1004.0 997.3
ЮЗ 4
{7}
30 км 4/4 840 м
[Sc diur, vesp]
+8.4 +6.4 87 +5 +5 тепло 1004.0 997.3
ЮЗ 5
{9}
30 км {ливн. дождь} 1/1 500 м
[Sc]
+7.9 +6.1 88 +4 +4 по сезону 1004.0 997.3
ЮЗ 5
{7}
30 км 1/1 450 м
[Sc]
+7.9 +6.1 88 +4 +4 по сезону 1004.2 997.6
Ю 5
{8}
30 км 1/1 1500 м
[Sc]
+7.6 +5.9 89 +4 +4 тепло 1004.5 997.9
ЮЗ 5
{9}
30 км {ливн. дождь} 5/5 420 м
[Sc Ac cuf]
+7.7 +5.9 88 +4 +4 по сезону 1005.0 998.4 +7.4
Ю 5
{8}
20 км в посл. час ливневой дождь 9/9 570 м
[Sc]
+8.5 +6.1 85 +5 +5 тепло 1005.3 998.7
Ю 6
{9}
15 км в посл. час ливневой дождь 8/6 420 м
[Cu Sc Ac trans Ci fib]
+8.8 +7.0 88 +5 +5 тепло 1005.5 998.9
Ю 6
{10}
20 км {ливн. дождь} 9/9 420 м
[Sc]
+9.2 +6.8 85 +5 +6 по сезону 1005.7 999.1
Ю 7
{10}
20 км 9/9 540 м
[Sc]
+9.6 +6.5 81 +6 +6 по сезону 1005.8 999.2
ЮЗ 8
{12}
20 км 9/4 720 м
[Sc Ac trans]
+10.6 +6.6 76 +7 +7 тепло 1005.7 999.1
Ю 7
{12}
20 км {ливн. дождь} 9/1 720 м
[Sc As trans]
+10.9 +7.1 77 +8 +8 по сезону 1005.2 998.6 0.0
Ю 7
{13}
20 км 9/4 750 м
[Sc Ac As]
+11.3 +6.7 73 +8 +8 по сезону 1004.7 998.1
Ю 7
{13}
20 км 9/4 800 м
[Sc Ac As]
+11.2 +6.8 74 +8 +8 тепло 1003.9 997.4
Ю 9
{13}
20 км 9/5 800 м
[Sc Ac As]
+11.2 +6.8 74 +8 +8 по сезону 1003.1 996.5
Ю 8
{14}
20 км слаб. дождь 9/5 800 м
[Sc Ac As]
+10.8 +6.9 77 +7 +7 по сезону 1002.5 996.0
Ю 9
{14}
10 км слаб. ливневой дождь 9/9 500 м
[Cu Sc]
+10.1 +7.8 86 +6 +6 тепло 1002.1 995.5
Ю 10
{15}
20 км {ливн. дождь, дождь} 9/9 660 м
[Sc]
+11.2 +7.9 80 +7 +7 по сезону 1001.3 994.7 +11.4 0.0
Ю 10
{17}
4500 м дождь 9/5 480 м
[Sc As op]
+11.2 +8.4 83 +7 +7 тепло 1001.0 994.4
Ю 9
{17}
6000 м слаб. дождь 9/9 400 м
[Sc]
+11.1 +9.2 88 +7 +7 тепло 1001.0 994.5
Ю 9
{17}
10 км слаб. дождь 9/9 240 м
[Sc]
+11.4 +9.7 89 +8 +8 по сезону 1002.0 995.4
ЮЗ 6
{14}
30 км в посл. час дождь 6/6 400 м
[Sc Ac As Ci fib]
+11.7 +9.9 89 +9 +9 тепло 1002.5 995.9
ЮЗ 5
{10}
30 км в посл. час ливневой дождь 6/6 420 м
[Sc Ac As Ci fib]
+11.8 +10.0 89 +9 +9 тепло 1003.3 996.7
ЮЗ 4
{17}
30 км слаб. ливневой дождь 4/4 750 м
[Cu Sc Ac trans Ci fib]
+11.3 +9.7 90 +9 +9 тепло 1003.9 997.3 0.8
ЮЗ 4
{6}
30 км в посл. час ливневой дождь 4/4 360 м
[Cu Sc Ac trans Ci fib]
+11.6 +10.0 90 +9 +9 тепло 1004.5 997.9
ЮЗ 4
{7}
30 км 4/4 420 м
[Cu Sc Ac trans Ci fib]
+11.5 +9.6 88 +9 +9 тепло 1004.6 998.0
ЮЗ 4
{7}
30 км {ливн. дождь} 4/1 420 м
[Cu Sc Ac trans Ci fib]
+10.9 +9.2 89 +8 +8 тепло 1004.8 998.2
ЮЗ 5
{8}
30 км 5/3 1020 м
[Cu Sc Ac cuf Ci fib]
+10.8 +8.9 88 +8 +8 тепло 1005.3 998.7
ЮЗ 5
{11}
30 км 4/4 540 м
[Cu Sc Ac cuf Ci fib]
+11.0 +8.9 87 +8 +8 тепло 1005.9 999.3
ЮЗ 3
{11}
30 км в посл. час ливневой дождь 8/6 540 м
[Cu Sc Ac trans Ci fib]
+10.2 +8.4 89 +8 +8 тепло 1006.2 999.6 +10.2 0.8
ЮЗ 5
{7}
30 км 9/3 420 м
[Cu Sc Ac trans Ci sp]
+10.4 +8.5 88 +7 +7 тепло 1006.8 1000.2
ЮЗ 5
{8}
20 км 6/3 420 м
[Cu Sc Ac trans Ci sp]
+10.7 +8.2 85 +8 +8 тепло 1007.4 1000.8
ЮЗ 7
{13}
20 км 5/1 540 м
[Cu hum Ac trans Ci sp]
+11.6 +8.1 79 +8 +9 тепло 1007.7 1001.1
ЮЗ 7
{13}
20 км 6/4 600 м
[Cu hum Ac trans Ci]
+11.9 +7.5 74 +9 +9 тепло 1008.4 1001.8
ЮЗ 7
{13}
20 км 8/3 660 м
[Cu hum Ac trans Ci fib]
+12.4 +7.5 72 +10 +10 тепло 1008.5 1001.9
ЮЗ 8
{14}
20 км 9/5 660 м
[Cu med, cong Ac trans Ci sp]
+12.8 +7.7 71 +10 +10 тепло 1008.9 1002.3
ЮЗ 9
{16}
20 км 9/4 840 м
[Cu hum Ac trans Ci sp]
+13.1 +7.3 68 +10 +10 тепло 1007.9 1001.4
ЮЗ 8
{13}
20 км в посл. час ливневой дождь 9/9 960 м
[Cu Sc]
+12.9 +6.7 66 +10 +10 тепло 1007.7 1001.1
ЮЗ 7
{16}
20 км в посл. час ливневой дождь 9/8 900 м
[Cu Sc]
+12.9 +7.5 70 +10 +10 тепло 1007.4 1000.9
ЮЗ 8
{13}
9000 м слаб. ливневой дождь 10/8 750 м
[Cb cap]
+12.7 +7.5 71 +10 +10 тепло 1007.2 1000.7
ЮЗ 3
{13}
10 км в посл. час ливневой дождь 10/8 600 м
[Cb cap]
+10.6 +8.7 88 +9 +9 тепло 1007.2 1000.6
ЮЗ 6
{16}
20 км слаб. дождь 10/9 400 м
[Cb cap]
+11.5 +8.9 84 +9 +9 тепло 1006.6 1000.0 +13.5 5
З 9
{16}
4000 м ливневой дождь 9/9 420 м
[Cb calv Ac inh]
+10.1 +7.5 84 +6 +6 тепло 1007.9 1001.3
ЮЗ 4
{18}
20 км в посл. час ливневой дождь 8/8 800 м
[Cb calv Ac cuf Ci ing]
+8.6 +6.8 88 +5 +5 тепло 1007.6 1000.9
ЮЗ 6
{18}
10 км слаб. ливневой дождь 8/6 480 м
[Cb calv Ac cuf]
+8.8 +7.1 89 +5 +5 по сезону 1007.5 1000.8
ЮЗ 7
{11}
20 км в посл. час ливневой дождь 6/1 1500 м
[Sc Ac trans Ci fib]
+9.4 +7.3 87 +5 +5 тепло 1007.8 1001.2
ЮЗ 7
{11}
20 км 6/1 600 м
[Cu med, cong Ac cuf]
+9.8 +7.8 87 +6 +6 тепло 1008.6 1001.9
ЮЗ 6
{18}
20 км {ливн. дождь} 6/1 1440 м
[Sc Ac trans Ci fib]
+10.1 +8.2 88 +7 +7 тепло 1009.1 1002.4 6
ЮЗ 7
{11}
20 км в посл. час ливневой дождь 8/4 660 м
[Cu Sc Ac trans Ci fib]
+10.3 +8.0 86 +7 +7 тепло 1010.0 1003.3
ЮЗ 6
{12}
20 км 9/0
[Ac trans]
+10.0 +7.6 85 +7 +7 тепло 1010.5 1003.9
ЮЗ 6
{12}
20 км 5/0
[Ac trans Ci fib]
+9.6 +7.4 86 +6 +6 тепло 1011.2 1004.5
Местоположение метеостанции Брюссель (Бельгия): широта 50.90 долгота 4.53 высота над уровнем моря 58 м.
В архиве по умолчанию представлена погода в Брюсселе за последнюю неделю. Архивные данные за месяц целиком и за предыдущие месяцы, начиная с января 2011 года, Вы можете получить, выбрав интересующий диапазон дат из раскрывающегося списка и нажав кнопку "Найти!".
*Определитесь, кто Вы:
Внимание! Время в таблицах - всемирное. Для получения местного времени необходимо прибавить поправку, которая равна 1 ч.
Смотрите также архив погоды в соседних городах и на ближайших метеорологических станциях:
Партнеры нашего сайта:      
Пояснения к столбцам:
  • Ветер - указаны скорость ветра в м/с - средняя за 10 мин, порывы в срок и между сроками (в фигурных скобках) и направление, откуда дует ветер: С - северный,
  • СВ - северо-восточный, В - восточный, ЮВ - юго-восточный, Ю - южный, ЮЗ - юго-западный, З - западный, СЗ - северо-западный.
  • Видимость - горизонтальная дальность видимости в метрах или километрах. При видимости от 1 до 10 км при отсутствии осадков обычно наблюдается дымка, при ухудшении видимости до 1 км и менее - туман. В сухую погоду видимость может ухудшаться дымом, пылью или мглою.
  • Явления - указаны атмосферные явления, наблюдавшиеся в срок или в последний час перед сроком; фигурными скобками обозначены явления, наблюдавшиеся между сроками (за 1-3 часа до срока); квадратными скобками обозначены град или гололедные отложения с указанием их диаметра в мм.
  • Облачность - указаны через наклонную черту общая и нижняя облачность в баллах и высота нижней границы облаков в метрах; квадратными скобками обозначены формы облаков: Ci - перистые, Cs - перисто-слоистые, Cc - перисто-кучевые, Ac - высококучевые, As - высокослоистые, Sc - слоисто-кучевые, Ns - слоисто-дождевые, Cu - кучевые, Cb - кучево-дождевые. Подробнее классификацию облаков см. в Атласе облаков (PDF).
  • T - Температура воздуха - температура, измеренная на высоте 2 м над землей.
  • Td - Температура точки росы - температура, при понижении до которой содержащийся в воздухе водяной пар достигнет насыщения.
  • f - Относительная влажность воздуха - влажноcть воздуха, измеренная на высоте 2 м над землей.
  • Te - Эффективная температура - температура, которую ощущает одетый по сезону человек в тени. Характеристика душности погоды. При расчете учитывается влияние влажности воздуха и скорости ветра на теплоощущения человека.
  • Tes - Эффективная температура на солнце - температура, которую ощущает человек, с поправкой на солнечный нагрев. Характеристика знойности погоды. Зависит от высоты солнца над горизонтом, облачности и скорости ветра. Ночью, в пасмурную погоду, а также при ветре 12 м/с и более поправка равна нулю.
  • P - Атмосферное давление - приведенное к уровню моря атмосферное давление.
  • Po - Атмосферное давление - измеренное на уровне метеостанции атмосферное давление.
  • Tmin - Минимальная температура - минимум температуры воздуха на высоте 2 м над землей.
  • Tmax - Максимальная температура - максимум температуры воздуха на высоте 2 м над землей.
  • R - Количество осадков - Количество выпавших осадков за период времени, мм. При наведении курсора мыши на число - период времени, за который выпало указанное количество осадков.
  • R24 - Количество осадков - Количество выпавших осадков за 24 часа, мм.
  • S - Снежный покров - Высота снежного покрова, см. При наведении курсора мыши на число - состояние снежного покрова и степень покрытия местности в баллах.